User: anonymous   Login
Location: Albany
(35.0000°S, 118.0000°E)
Time: 18:14:13
(UTC-04:00)
Language:

JAS-1B - Orbit

View from above orbital plane
View from above orbital plane
View from above satellite
View from above satellite

Ground track
Ground track

The orbit data is extracted from the following two-line orbital elements,

1 20480U 90013C   15117.44266780 -.00000057  00000-0 -52481-4 0  9997
2 20480 099.0728 026.9929 0540492 002.4594 055.4072 12.83405078181445
Epoch (UTC): 27 April 2015 10:37:26
Eccentricity: 0.0540492
inclination: 99.0728°
perigee height: 911 km
apogee height: 1744 km
right ascension of ascending node: 26.9929°
argument of perigee: 2.4594°
revolutions per day: 12.83405078
mean anomaly at epoch: 55.4072°
orbit number at epoch: 18144

The dashed part of the orbit path shows where the satellite is in the earth's shadow,  

DLR